contact:dominique.lefevre@mio.osupytheas.fr, maurice.libes@osupytheas.fr, didier.mallarino@osupytheas.fr
Project:EMSO http://www.emso-fr.org/EMSO-France
Depth: 2436.0 m
Title:EMSO Ligure Ouest : Data MII capteur MICROCAT
DateTime_Computer,Latitude,Longitude,Temperature,Conductivity,Pressure,DateTime_Instrument
DateTime_Computer,Latitude,Longitude,degC,S m-1,dbar,DateTime_Instrument
2022-04-04T00:02:19Z,42.805,6.029,13.3039,4.60110,2470.31,2022-4-04T02:03:57Z
2022-04-04T00:05:22Z,42.805,6.029,13.3031,4.60100,2470.297,2022-4-04T02:07:00Z
2022-04-04T00:08:26Z,42.805,6.029,13.3035,4.60112,2470.297,2022-4-04T02:10:03Z
2022-04-04T00:11:29Z,42.805,6.029,13.3041,4.60119,2470.297,2022-4-04T02:13:06Z
2022-04-04T00:14:32Z,42.805,6.029,13.3026,4.60070,2470.297,2022-4-04T02:16:09Z
2022-04-04T00:17:35Z,42.805,6.029,13.3027,4.60093,2470.31,2022-4-04T02:19:12Z
2022-04-04T00:20:38Z,42.805,6.029,13.3041,4.60117,2470.297,2022-4-04T02:22:15Z
2022-04-04T00:23:41Z,42.805,6.029,13.3040,4.60119,2470.31,2022-4-04T02:25:19Z
2022-04-04T00:26:44Z,42.805,6.029,13.3045,4.60114,2470.297,2022-4-04T02:28:22Z
2022-04-04T00:29:47Z,42.805,6.029,13.3047,4.60132,2470.32,2022-4-04T02:31:25Z
2022-04-04T00:32:50Z,42.805,6.029,13.3049,4.60112,2470.273,2022-4-04T02:34:28Z
2022-04-04T00:35:54Z,42.805,6.029,13.3039,4.60142,2470.334,2022-4-04T02:37:31Z
2022-04-04T00:38:57Z,42.805,6.029,13.3019,4.60127,2470.273,2022-4-04T02:40:34Z
2022-04-04T00:42:00Z,42.805,6.029,13.3029,4.60125,2470.273,2022-4-04T02:43:37Z
2022-04-04T00:45:03Z,42.805,6.029,13.3048,4.60124,2470.273,2022-4-04T02:46:40Z
2022-04-04T00:48:06Z,42.805,6.029,13.3043,4.60137,2470.287,2022-4-04T02:49:44Z
2022-04-04T00:51:09Z,42.805,6.029,13.3044,4.60121,2470.334,2022-4-04T02:52:47Z
2022-04-04T00:54:12Z,42.805,6.029,13.3034,4.60126,2470.287,2022-4-04T02:55:50Z
2022-04-04T00:57:15Z,42.805,6.029,13.3039,4.60092,2470.31,2022-4-04T02:58:53Z
2022-04-04T01:00:19Z,42.805,6.029,13.3039,4.60110,2470.287,2022-4-04T03:01:56Z
2022-04-04T01:03:22Z,42.805,6.029,13.3048,4.60062,2470.273,2022-4-04T03:04:59Z
2022-04-04T01:06:25Z,42.805,6.029,13.3058,4.60094,2470.273,2022-4-04T03:08:02Z
2022-04-04T01:09:28Z,42.805,6.029,13.3038,4.60124,2470.287,2022-4-04T03:11:05Z
2022-04-04T01:12:31Z,42.805,6.029,13.3033,4.60114,2470.273,2022-4-04T03:14:08Z
2022-04-04T01:15:34Z,42.805,6.029,13.3043,4.60114,2470.25,2022-4-04T03:17:12Z
2022-04-04T01:18:37Z,42.805,6.029,13.3024,4.60132,2470.273,2022-4-04T03:20:15Z
2022-04-04T01:21:40Z,42.805,6.029,13.3027,4.60102,2470.273,2022-4-04T03:23:18Z
2022-04-04T01:24:43Z,42.805,6.029,13.3019,4.60108,2470.273,2022-4-04T03:26:21Z
2022-04-04T01:27:47Z,42.805,6.029,13.3025,4.60137,2470.273,2022-4-04T03:29:24Z
2022-04-04T01:30:50Z,42.805,6.029,13.3050,4.60082,2470.31,2022-4-04T03:32:27Z
2022-04-04T01:33:53Z,42.805,6.029,13.3013,4.60111,2470.287,2022-4-04T03:35:30Z
2022-04-04T01:36:56Z,42.805,6.029,13.3007,4.60069,2470.287,2022-4-04T03:38:33Z
2022-04-04T01:39:59Z,42.805,6.029,13.3017,4.60072,2470.264,2022-4-04T03:41:37Z
2022-04-04T01:43:02Z,42.805,6.029,13.3028,4.60117,2470.273,2022-4-04T03:44:40Z
2022-04-04T01:46:05Z,42.805,6.029,13.3026,4.60102,2470.287,2022-4-04T03:47:43Z
2022-04-04T01:49:08Z,42.805,6.029,13.3041,4.60151,2470.31,2022-4-04T03:50:46Z
2022-04-04T01:52:12Z,42.805,6.029,13.3038,4.60110,2470.25,2022-4-04T03:53:49Z
2022-04-04T01:55:15Z,42.805,6.029,13.3026,4.60092,2470.297,2022-4-04T03:56:52Z
2022-04-04T01:58:18Z,42.805,6.029,13.3042,4.60121,2470.287,2022-4-04T03:59:55Z
2022-04-04T02:01:21Z,42.805,6.029,13.3055,4.60095,2470.25,2022-4-04T04:02:58Z
2022-04-04T02:04:24Z,42.805,6.029,13.3048,4.60117,2470.25,2022-4-04T04:06:01Z
2022-04-04T02:07:27Z,42.805,6.029,13.3033,4.60114,2470.264,2022-4-04T04:09:05Z
2022-04-04T02:10:30Z,42.805,6.029,13.3018,4.60112,2470.273,2022-4-04T04:12:08Z
2022-04-04T02:13:33Z,42.805,6.029,13.3009,4.60082,2470.273,2022-4-04T04:15:11Z
2022-04-04T02:16:36Z,42.805,6.029,13.3015,4.60108,2470.25,2022-4-04T04:18:14Z
2022-04-04T02:19:40Z,42.805,6.029,13.3038,4.60111,2470.31,2022-4-04T04:21:17Z
2022-04-04T02:22:43Z,42.805,6.029,13.3031,4.60097,2470.273,2022-4-04T04:24:20Z
2022-04-04T02:25:46Z,42.805,6.029,13.3008,4.60081,2470.264,2022-4-04T04:27:23Z
2022-04-04T02:28:49Z,42.805,6.029,13.3015,4.60087,2470.273,2022-4-04T04:30:26Z
2022-04-04T02:31:52Z,42.805,6.029,13.3017,4.60076,2470.287,2022-4-04T04:33:29Z
2022-04-04T02:34:55Z,42.805,6.029,13.3026,4.60087,2470.287,2022-4-04T04:36:33Z
2022-04-04T02:37:58Z,42.805,6.029,13.3014,4.60089,2470.287,2022-4-04T04:39:36Z
2022-04-04T02:41:01Z,42.805,6.029,13.3019,4.60126,2470.25,2022-4-04T04:42:39Z
2022-04-04T02:44:04Z,42.805,6.029,13.3026,4.60101,2470.25,2022-4-04T04:45:42Z
2022-04-04T02:47:08Z,42.805,6.029,13.3039,4.60133,2470.24,2022-4-04T04:48:45Z
2022-04-04T02:50:11Z,42.805,6.029,13.3024,4.60114,2470.287,2022-4-04T04:51:48Z
2022-04-04T02:53:14Z,42.805,6.029,13.3034,4.60087,2470.273,2022-4-04T04:54:51Z
2022-04-04T02:56:17Z,42.805,6.029,13.3008,4.60117,2470.273,2022-4-04T04:57:54Z
2022-04-04T02:59:20Z,42.805,6.029,13.3056,4.60092,2470.25,2022-4-04T05:00:58Z
2022-04-04T03:02:23Z,42.805,6.029,13.3024,4.60105,2470.264,2022-4-04T05:04:01Z
2022-04-04T03:05:26Z,42.805,6.029,13.3019,4.60056,2470.264,2022-4-04T05:07:04Z
2022-04-04T03:08:29Z,42.805,6.029,13.3011,4.60070,2470.25,2022-4-04T05:10:07Z
2022-04-04T03:11:33Z,42.805,6.029,13.3006,4.60071,2470.287,2022-4-04T05:13:10Z
2022-04-04T03:14:36Z,42.805,6.029,13.3025,4.60092,2470.264,2022-4-04T05:16:13Z
2022-04-04T03:17:39Z,42.805,6.029,13.3039,4.60120,2470.25,2022-4-04T05:19:16Z
2022-04-04T03:20:42Z,42.805,6.029,13.3054,4.60106,2470.273,2022-4-04T05:22:19Z
2022-04-04T03:23:45Z,42.805,6.029,13.3027,4.60113,2470.264,2022-4-04T05:25:22Z
2022-04-04T03:26:48Z,42.805,6.029,13.3031,4.60108,2470.264,2022-4-04T05:28:26Z
2022-04-04T03:29:51Z,42.805,6.029,13.3043,4.60108,2470.227,2022-4-04T05:31:29Z
2022-04-04T03:32:54Z,42.805,6.029,13.3027,4.60103,2470.227,2022-4-04T05:34:32Z
2022-04-04T03:35:57Z,42.805,6.029,13.3043,4.60095,2470.24,2022-4-04T05:37:35Z
2022-04-04T03:39:01Z,42.805,6.029,13.3049,4.60062,2470.24,2022-4-04T05:40:38Z
2022-04-04T03:42:04Z,42.805,6.029,13.3014,4.60101,2470.264,2022-4-04T05:43:41Z
2022-04-04T03:45:07Z,42.805,6.029,13.3034,4.60091,2470.264,2022-4-04T05:46:44Z
2022-04-04T03:48:10Z,42.805,6.029,13.3034,4.60099,2470.24,2022-4-04T05:49:47Z
2022-04-04T03:51:13Z,42.805,6.029,13.3037,4.60079,2470.264,2022-4-04T05:52:51Z
2022-04-04T03:54:16Z,42.805,6.029,13.3017,4.60081,2470.264,2022-4-04T05:55:54Z
2022-04-04T03:57:19Z,42.805,6.029,13.3043,4.60116,2470.264,2022-4-04T05:58:57Z
2022-04-04T04:00:22Z,42.805,6.029,13.3015,4.60091,2470.227,2022-4-04T06:02:00Z
2022-04-04T04:03:26Z,42.805,6.029,13.3030,4.60122,2470.264,2022-4-04T06:05:03Z
2022-04-04T04:06:29Z,42.805,6.029,13.3039,4.60099,2470.273,2022-4-04T06:08:06Z
2022-04-04T04:09:32Z,42.805,6.029,13.3029,4.60111,2470.273,2022-4-04T06:11:09Z
2022-04-04T04:12:35Z,42.805,6.029,13.3018,4.60067,2470.236,2022-4-04T06:14:12Z
2022-04-04T04:15:38Z,42.805,6.029,13.3040,4.60068,2470.24,2022-4-04T06:17:15Z
2022-04-04T04:18:41Z,42.805,6.029,13.3048,4.60085,2470.25,2022-4-04T06:20:19Z
2022-04-04T04:21:44Z,42.805,6.029,13.3025,4.60095,2470.25,2022-4-04T06:23:22Z
2022-04-04T04:24:47Z,42.805,6.029,13.3017,4.60120,2470.297,2022-4-04T06:26:25Z
2022-04-04T04:27:50Z,42.805,6.029,13.3031,4.60104,2470.287,2022-4-04T06:29:28Z
2022-04-04T04:30:54Z,42.805,6.029,13.3028,4.60087,2470.297,2022-4-04T06:32:31Z
2022-04-04T04:33:57Z,42.805,6.029,13.3016,4.60119,2470.287,2022-4-04T06:35:34Z
2022-04-04T04:37:00Z,42.805,6.029,13.3011,4.60114,2470.273,2022-4-04T06:38:37Z
2022-04-04T04:40:03Z,42.805,6.029,13.3014,4.60073,2470.264,2022-4-04T06:41:40Z
2022-04-04T04:43:06Z,42.805,6.029,13.3033,4.60117,2470.287,2022-4-04T06:44:43Z
2022-04-04T04:46:09Z,42.805,6.029,13.3029,4.60104,2470.273,2022-4-04T06:47:47Z
2022-04-04T04:49:12Z,42.805,6.029,13.3046,4.60102,2470.287,2022-4-04T06:50:50Z
2022-04-04T04:52:15Z,42.805,6.029,13.3044,4.60070,2470.297,2022-4-04T06:53:53Z
2022-04-04T04:55:18Z,42.805,6.029,13.3049,4.60107,2470.227,2022-4-04T06:56:56Z
2022-04-04T04:58:22Z,42.805,6.029,13.3033,4.60099,2470.273,2022-4-04T06:59:59Z
2022-04-04T05:01:25Z,42.805,6.029,13.3009,4.60072,2470.287,2022-4-04T07:03:02Z
2022-04-04T05:04:28Z,42.805,6.029,13.3015,4.60092,2470.297,2022-4-04T07:06:05Z
2022-04-04T05:07:31Z,42.805,6.029,13.3013,4.60110,2470.287,2022-4-04T07:09:08Z
2022-04-04T05:10:34Z,42.805,6.029,13.3025,4.60103,2470.297,2022-4-04T07:12:12Z
2022-04-04T05:13:37Z,42.805,6.029,13.3037,4.60097,2470.334,2022-4-04T07:15:15Z
2022-04-04T05:16:40Z,42.805,6.029,13.3024,4.60120,2470.287,2022-4-04T07:18:18Z
2022-04-04T05:19:43Z,42.805,6.029,13.3029,4.60152,2470.31,2022-4-04T07:21:21Z
2022-04-04T05:22:47Z,42.805,6.029,13.3022,4.60100,2470.297,2022-4-04T07:24:24Z
2022-04-04T05:25:50Z,42.805,6.029,13.3042,4.60100,2470.31,2022-4-04T07:27:27Z
2022-04-04T05:28:53Z,42.805,6.029,13.3025,4.60132,2470.334,2022-4-04T07:30:30Z
2022-04-04T05:31:56Z,42.805,6.029,13.3029,4.60099,2470.31,2022-4-04T07:33:33Z
2022-04-04T05:34:59Z,42.805,6.029,13.3026,4.60100,2470.334,2022-4-04T07:36:36Z
2022-04-04T05:38:02Z,42.805,6.029,13.3027,4.60125,2470.31,2022-4-04T07:39:40Z
2022-04-04T05:41:05Z,42.805,6.029,13.3025,4.60119,2470.334,2022-4-04T07:42:43Z
2022-04-04T05:44:08Z,42.805,6.029,13.3042,4.60098,2470.32,2022-4-04T07:45:46Z
2022-04-04T05:47:11Z,42.805,6.029,13.3019,4.60120,2470.343,2022-4-04T07:48:49Z
2022-04-04T05:50:15Z,42.805,6.029,13.3041,4.60144,2470.334,2022-4-04T07:51:52Z
2022-04-04T05:53:18Z,42.805,6.029,13.3034,4.60116,2470.334,2022-4-04T07:54:55Z
2022-04-04T05:56:21Z,42.805,6.029,13.3048,4.60104,2470.357,2022-4-04T07:57:58Z
2022-04-04T05:59:24Z,42.805,6.029,13.3018,4.60098,2470.343,2022-4-04T08:01:01Z
2022-04-04T06:02:27Z,42.805,6.029,13.3037,4.60084,2470.32,2022-4-04T08:04:04Z
2022-04-04T06:05:30Z,42.805,6.029,13.3024,4.60117,2470.32,2022-4-04T08:07:08Z
2022-04-04T06:08:33Z,42.805,6.029,13.3011,4.60119,2470.343,2022-4-04T08:10:11Z
2022-04-04T06:11:36Z,42.805,6.029,13.3029,4.60102,2470.343,2022-4-04T08:13:14Z
2022-04-04T06:14:39Z,42.805,6.029,13.3026,4.60113,2470.343,2022-4-04T08:16:17Z
2022-04-04T06:17:43Z,42.805,6.029,13.3038,4.60078,2470.343,2022-4-04T08:19:20Z
2022-04-04T06:20:46Z,42.805,6.029,13.3037,4.60113,2470.38,2022-4-04T08:22:23Z
2022-04-04T06:23:49Z,42.805,6.029,13.3032,4.60111,2470.38,2022-4-04T08:25:26Z
2022-04-04T06:26:52Z,42.805,6.029,13.3036,4.60084,2470.343,2022-4-04T08:28:29Z
2022-04-04T06:29:55Z,42.805,6.029,13.3037,4.60097,2470.343,2022-4-04T08:31:33Z
2022-04-04T06:32:58Z,42.805,6.029,13.3039,4.60103,2470.39,2022-4-04T08:34:36Z
2022-04-04T06:36:01Z,42.805,6.029,13.3034,4.60093,2470.404,2022-4-04T08:37:39Z
2022-04-04T06:39:04Z,42.805,6.029,13.3024,4.60098,2470.404,2022-4-04T08:40:42Z
2022-04-04T06:42:08Z,42.805,6.029,13.3011,4.60084,2470.413,2022-4-04T08:43:45Z
2022-04-04T06:45:11Z,42.805,6.029,13.3014,4.60106,2470.39,2022-4-04T08:46:48Z
2022-04-04T06:48:14Z,42.805,6.029,13.3043,4.60106,2470.427,2022-4-04T08:49:51Z
2022-04-04T06:51:17Z,42.805,6.029,13.3045,4.60087,2470.413,2022-4-04T08:52:54Z
2022-04-04T06:54:20Z,42.805,6.029,13.3042,4.60087,2470.413,2022-4-04T08:55:57Z
2022-04-04T06:57:23Z,42.805,6.029,13.3047,4.60079,2470.427,2022-4-04T08:59:01Z
2022-04-04T07:00:26Z,42.805,6.029,13.3048,4.60095,2470.413,2022-4-04T09:02:04Z
2022-04-04T07:03:29Z,42.805,6.029,13.3029,4.60116,2470.404,2022-4-04T09:05:07Z
2022-04-04T07:06:32Z,42.805,6.029,13.3043,4.60134,2470.413,2022-4-04T09:08:10Z
2022-04-04T07:09:36Z,42.805,6.029,13.3049,4.60125,2470.437,2022-4-04T09:11:13Z
2022-04-04T07:12:39Z,42.805,6.029,13.3034,4.60149,2470.45,2022-4-04T09:14:16Z
2022-04-04T07:15:42Z,42.805,6.029,13.3017,4.60126,2470.45,2022-4-04T09:17:19Z
2022-04-04T07:18:45Z,42.805,6.029,13.3026,4.60102,2470.474,2022-4-04T09:20:22Z
2022-04-04T07:21:48Z,42.805,6.029,13.3031,4.60135,2470.474,2022-4-04T09:23:26Z
2022-04-04T07:24:51Z,42.805,6.029,13.3043,4.60104,2470.45,2022-4-04T09:26:29Z
2022-04-04T07:27:54Z,42.805,6.029,13.3031,4.60098,2470.437,2022-4-04T09:29:32Z
2022-04-04T07:30:57Z,42.805,6.029,13.3016,4.60109,2470.46,2022-4-04T09:32:35Z
2022-04-04T07:34:01Z,42.805,6.029,13.3029,4.60113,2470.437,2022-4-04T09:35:38Z
2022-04-04T07:37:04Z,42.805,6.029,13.3034,4.60058,2470.45,2022-4-04T09:38:41Z
2022-04-04T07:40:07Z,42.805,6.029,13.3014,4.60096,2470.45,2022-4-04T09:41:44Z
2022-04-04T07:43:10Z,42.805,6.029,13.3034,4.60118,2470.46,2022-4-04T09:44:47Z
2022-04-04T07:46:13Z,42.805,6.029,13.3034,4.60104,2470.413,2022-4-04T09:47:51Z
2022-04-04T07:49:16Z,42.805,6.029,13.3015,4.60106,2470.46,2022-4-04T09:50:54Z
2022-04-04T07:52:19Z,42.805,6.029,13.3024,4.60122,2470.46,2022-4-04T09:53:57Z
2022-04-04T07:55:22Z,42.805,6.029,13.3031,4.60119,2470.46,2022-4-04T09:57:00Z
